DELTA 1 DEB, 7149

Orbit data source: Space-Track

DELTA 1 DEB, 7149 is space debris in SSO originally from a launch on Tue, 06 Nov 1973 UTC launched from the Air Force Western Test Range (AFWTR). Debris objects in space refer to the collection of defunct objects orbiting the Earth. Examples of debris include non-operational satellites, rocket bodies, and fragments generated from explosions, collisions, or faulty payload assembly.

Loading next visibility...
Identifier
7149, 1973-086DP
Orbit
SSO
Country
Flag of USUS
Related business
Manufacturer
Unknown
Mission
Spacecraft
Bus & Motor
Unknown
Mass
Unknown
Launch date (UTC)
1973-11-06 (53 years ago)
Launch vehicle
Unknown
Launch site
Air Force Western Test Range (AFWTR)
Object type
Payload
Rocket body
Debris
Shape & HBR
Unknown shape, 0.2 m
Radar Cross Section
Medium (>0.1 m² and <1 m²)

Expand to show TLE details & history
Last TLE update: 19 hours ago

TLE from 19 hours ago
0 DELTA 1 DEB
1 07149U 73086DP  26263.27054796  .00000389  00000-0  31862-2 0  9996
2 07149 102.1219  17.4819 0053835 193.6664 195.1717 12.41226118386835
Epoch: 2026-09-20T06:29Z
TLE epoch observation values (Epoch: 2026-09-20T06:29:35.343Z)
Latitude
28.02226°
Longitude
-85.61419°
Altitude
1,545.503 km
Speed
7.078 km/s
True Right ascension
00h 43m 48s
True Declination
27° 53' 39"
Sunlit
Object was in full shadow at epoch
Visualization orbit readout
Latitude
Unknown
Longitude
Unknown
Altitude
Unknown
Speed
Unknown
Apparent Right ascension
Unknown
Apparent Declination
Unknown
Sunlit
N/A
Visualization observer readout
Local Sidereal Time
18:01:13
Azimuth
Unknown
Elevation
Unknown
Doppler factor
Unknown
Orbital elements
Apogee altitude
1,541.397 km
Perigee altitude
1,456.584 km
Semi-major axis
7,877.127 km
Eccentricity
0.00538
Inclination
102.1219°
RAAN
17.4819°
Arg. of periapsis
193.6664°
True anomaly
195.01129°
Mean anomaly
195.1717°
Eccentric anomaly
195.09139°
Mean motion
3.1045 °/min
Orbital period
115.96 mins
BSTAR
0.0031862
Loading maneuver chart data...
Computing Atmospheric mass density...
Loading historical data...
Loading historical data...
Loading historical data...
Loading historical data...
Loading historical data...
Loading historical data...
Loading historical data...

Documentation

Showing up to 5 results
|